Location: Newark
(51.3318°N, 0.0053°E)
Time: 05:04:59
(UTC+00:00)

Envisat - Pass Details

Date: 21 January 2022
Orbit: 764 x 765 km, 98.2° (Epoch: 25 May)

Event Time Altitude Azimuth Distance (km) Brightness Sun altitude
Rises 05:40:52 0° 11° (N) 3,244 6.3 -20.1°
Reaches altitude 10° 05:43:14 10° 6° (N) 2,314 5.5 -19.7°
Maximum altitude 05:48:10 51° 292° (WNW) 958 3.1 -19.0°
Drops below altitude 10° 05:53:03 10° 217° (SW) 2,299 5.2 -18.2°
Sets 05:55:24 0° 213° (SSW) 3,221 6.0 -17.8°
